Waarnemingen

Advertentie
Mijn weer
Geilenkirchen, Duitsland (10500): temperatuur & dauwpunt: 15.02.2018 14:00:00 - 21.02.2018 14:00:00 (CET)Geilenkirchen, Duitsland (10500): temperatuur -5cm: 15.02.2018 14:00:00 - 21.02.2018 14:00:00 (CET)Geilenkirchen, Duitsland (10500): temperatuur -20cm & temperatuur -100cm: 15.02.2018 14:00:00 - 21.02.2018 14:00:00 (CET)Geilenkirchen, Duitsland (10500): windsnelheid: 15.02.2018 14:00:00 - 21.02.2018 14:00:00 (CET)Geilenkirchen, Duitsland (10500): windrichting: 15.02.2018 14:00:00 - 21.02.2018 14:00:00 (CET)Geilenkirchen, Duitsland (10500): luchtdruk: 15.02.2018 14:00:00 - 21.02.2018 14:00:00 (CET)Geilenkirchen, Duitsland (10500): zicht: 15.02.2018 14:00:00 - 21.02.2018 14:00:00 (CET)
Datum & Tijd tt [°C] td [°C] tt -5cm [°C] tt -20cm [°C] tt -100cm [°C] ff [km/u] ff [kn] dd ppp [hPa] vv [km]
21.02.2018 14:00:00 4,0 -3,0 - - - 15 8 NNO - 9
21.02.2018 13:00:00 3,6 -3,3 - - - 18 10 NO 1025,3 8
21.02.2018 12:00:00 3,1 -3,1 - - - 16 9 NNO 1025,3 8
21.02.2018 11:00:00 1,7 -2,7 - - - 9 5 NNO 1025,5 6
21.02.2018 10:00:00 0,5 -3,0 - - - 8 4 NO 1025,6 6
21.02.2018 09:00:00 0,5 -4,3 - - - 2 1 ZZO 1025,3 4,5
21.02.2018 08:00:00 -3,9 -5,5 0,6 2,0 5,1 4 2 W 1025,4 4,3
21.02.2018 07:00:00 -2,4 -4,6 - - - 5 3 WNW 1024,6 4,0
21.02.2018 06:00:00 -3,0 -5,6 - - - 7 4 ONO 1024,5 6
21.02.2018 05:00:00 -2,9 -5,0 - - - 9 5 NNO 1024,5 6
21.02.2018 04:00:00 -2,3 -4,2 - - - 5 3 N 1024,0 6
21.02.2018 03:00:00 -2,9 -4,7 - - - 5 3 NO 1023,5 6
21.02.2018 02:00:00 -2,3 -4,8 - - - 8 4 N 1023,7 7
21.02.2018 01:00:00 -1,6 -4,3 - - - 9 5 N 1023,3 9
21.02.2018 00:00:00 -0,6 -3,8 - - - 13 7 NNO 1022,4 9
20.02.2018 23:00:00 -0,2 -3,6 - - - 9 5 NNO 1022,0 10
20.02.2018 22:00:00 0,1 -3,7 - - - 11 6 NNO 1021,6 10
20.02.2018 21:00:00 -0,3 -3,4 - - - 8 4 N 1021,1 10
20.02.2018 20:00:00 1,2 -2,6 - - - 11 6 NNO 1020,5 10
20.02.2018 19:00:00 2,7 -2,1 - - - 5 3 N 1019,7 10
20.02.2018 18:00:00 3,7 -1,8 - - - 5 3 NNO 1019,1 10
20.02.2018 17:00:00 4,2 -1,2 - - - 5 3 N 1018,7 10
20.02.2018 16:00:00 4,5 -1,3 - - - 9 5 NNW 1018,3 10
20.02.2018 15:00:00 4,9 -1,2 6,1 3,5 - 9 5 NW 1018,6 10
20.02.2018 14:00:00 5,3 -1,1 - - - 5 3 O 1018,5 9
20.02.2018 13:00:00 4,1 -0,7 - - - 8 4 NNO 1018,6 9
20.02.2018 12:00:00 3,7 -1,6 - - - 5 3 NO 1019,0 8
20.02.2018 11:00:00 3,5 -1,2 - - - 8 4 N 1018,9 8
20.02.2018 10:00:00 0,8 -1,7 - - - 8 4 OZO 1018,4 7
20.02.2018 09:00:00 0,0 -1,5 - - - 4 2 OZO 1018,6 6
20.02.2018 08:00:00 -3,8 -4,8 0,9 2,2 5,2 0 0 N 1018,7 5
20.02.2018 07:00:00 -3,3 -4,8 - - - 2 1 ZW 1018,4 6
20.02.2018 06:00:00 -2,5 -3,7 - - - 2 1 - 1018,2 7
20.02.2018 05:00:00 -1,9 -3,4 - - - 2 1 - 1018,4 8
20.02.2018 04:00:00 -0,6 -2,3 - - - 2 1 - 1017,9 9
20.02.2018 03:00:00 0,0 -2,3 - - - 4 2 O 1017,7 10
20.02.2018 02:00:00 0,2 -2,2 - - - 4 2 ONO 1017,6 10
20.02.2018 01:00:00 0,6 -2,0 - - - 2 1 - 1018,1 10
20.02.2018 00:00:00 0,6 -1,9 - - - 2 1 O 1018,0 10
19.02.2018 23:00:00 0,9 -1,8 - - - 4 2 O 1017,9 10
19.02.2018 22:00:00 1,2 -1,8 - - - 2 1 OZO 1018,1 10
19.02.2018 21:00:00 1,8 -1,8 - - - 4 2 OZO 1018,3 10
19.02.2018 20:00:00 1,3 -1,8 - - - 4 2 O 1018,4 12
19.02.2018 19:00:00 2,4 -1,7 - - - 4 2 O 1018,3 10
19.02.2018 18:00:00 2,9 -1,3 - - - 5 3 OZO 1018,2 10
19.02.2018 17:00:00 3,7 -1,7 - - - 5 3 O 1018,3 10
19.02.2018 16:00:00 4,3 -1,5 - - - 7 4 O 1018,6 15
19.02.2018 15:00:00 4,3 -2,3 4,1 2,3 - 4 2 ZZO 1019,0 10
19.02.2018 14:00:00 2,9 -1,7 - - - 7 4 O 1019,7 10
19.02.2018 13:00:00 2,2 -1,9 - - - 5 3 ONO 1020,1 10
19.02.2018 12:00:00 2,2 -2,0 - - - 4 2 ZZO 1020,4 10
19.02.2018 11:00:00 0,6 -2,6 - - - 4 2 OZO 1020,9 10
19.02.2018 10:00:00 0,0 -2,1 - - - 2 1 O 1021,0 10
19.02.2018 09:00:00 -1,3 -3,0 - - - 4 2 ZZO 1021,2 8
19.02.2018 08:00:00 -2,5 -3,9 0,7 2,0 5,2 2 1 OZO 1021,7 8
19.02.2018 07:00:00 -2,3 -3,7 - - - 2 1 ZZO 1021,5 10
19.02.2018 06:00:00 -3,2 -4,5 - - - 0 0 N 1021,8 10
19.02.2018 05:00:00 -3,2 -4,5 - - - 2 1 ZZO 1022,1 10
19.02.2018 04:00:00 -3,5 -4,7 - - - 2 1 O 1022,6 10
19.02.2018 03:00:00 -2,7 -4,5 - - - 7 4 ZZO 1023,0 10
19.02.2018 02:00:00 -4,5 -6,7 - - - 7 4 ZZO 1023,6 10
19.02.2018 01:00:00 1,3 -3,0 - - - 8 4 ZZO 1023,9 10
19.02.2018 00:00:00 0,3 -3,5 - - - 9 5 ZZO 1024,1 10
18.02.2018 23:00:00 1,6 -3,5 - - - 8 4 ZZO 1024,2 10
18.02.2018 22:00:00 2,3 -3,3 - - - 5 3 Z 1024,7 10
18.02.2018 21:00:00 2,1 -3,1 - - - 7 4 Z 1024,9 20
18.02.2018 20:00:00 0,2 -2,6 - - - 4 2 ZO 1024,9 20
18.02.2018 19:00:00 4,2 -1,1 - - - 5 3 OZO 1025,0 10
18.02.2018 18:00:00 - - - - - - - - - -
18.02.2018 17:00:00 - - - - - - - - - -
18.02.2018 16:00:00 - - - - - - - - - -
18.02.2018 15:00:00 - - - - - - - - - -
18.02.2018 14:00:00 - - - - - - - - - -
18.02.2018 13:00:00 - - - - - - - - - -
18.02.2018 12:00:00 - - - - - - - - - -
18.02.2018 11:00:00 - - - - - - - - - -
18.02.2018 10:00:00 - - - - - - - - - -
18.02.2018 09:00:00 - - - - - - - - - -
18.02.2018 08:00:00 - - - - - - - - - -
18.02.2018 07:00:00 - - - - - - - - - -
18.02.2018 06:00:00 - - - - - - - - - -
18.02.2018 05:00:00 - - - - - - - - - -
18.02.2018 04:00:00 - - - - - - - - - -
18.02.2018 03:00:00 - - - - - - - - - -
18.02.2018 02:00:00 - - - - - - - - - -
18.02.2018 01:00:00 - - - - - - - - - -
18.02.2018 00:00:00 - - - - - - - - - -
17.02.2018 23:00:00 - - - - - - - - - -
17.02.2018 22:00:00 - - - - - - - - - -
17.02.2018 21:00:00 - - - - - - - - - -
17.02.2018 20:00:00 - - - - - - - - - -
17.02.2018 19:00:00 - - - - - - - - - -
17.02.2018 18:00:00 - - - - - - - - - -
17.02.2018 17:00:00 - - - - - - - - - -
17.02.2018 16:00:00 - - - - - - - - - -
17.02.2018 15:00:00 - - - - - - - - - -
17.02.2018 14:00:00 - - - - - - - - - -
17.02.2018 13:00:00 - - - - - - - - - -
17.02.2018 12:00:00 - - - - - - - - - -
17.02.2018 11:00:00 - - - - - - - - - -
17.02.2018 10:00:00 - - - - - - - - - -
17.02.2018 09:00:00 - - - - - - - - - -
17.02.2018 08:00:00 - - - - - - - - - -
17.02.2018 07:00:00 - - - - - - - - - -
17.02.2018 06:00:00 - - - - - - - - - -
17.02.2018 05:00:00 - - - - - - - - - -
17.02.2018 04:00:00 - - - - - - - - - -
17.02.2018 03:00:00 - - - - - - - - - -
17.02.2018 02:00:00 - - - - - - - - - -
17.02.2018 01:00:00 - - - - - - - - - -
17.02.2018 00:00:00 - - - - - - - - - -
16.02.2018 23:00:00 - - - - - - - - - -
16.02.2018 22:00:00 - - - - - - - - - -
16.02.2018 21:00:00 - - - - - - - - - -
16.02.2018 20:00:00 - - - - - - - - - -
16.02.2018 19:00:00 - - - - - - - - - -
16.02.2018 18:00:00 6,2 -1,3 - - - 4 2 ZZW 1027,2 10
16.02.2018 17:00:00 7,8 -1,5 - - - 13 7 W 1026,9 10
16.02.2018 16:00:00 8,1 -0,7 - - - 9 5 WZW 1026,9 10
16.02.2018 15:00:00 7,4 -1,1 6,4 4,3 - 15 8 WZW 1027,1 10
16.02.2018 14:00:00 6,8 -0,2 - - - 21 11 W 1027,4 10
16.02.2018 13:00:00 6,9 1,3 - - - 18 10 W 1027,4 10
16.02.2018 12:00:00 5,7 1,9 - - - 13 7 WZW 1027,2 10
16.02.2018 11:00:00 5,0 1,7 - - - 13 7 WZW 1027,0 10
16.02.2018 10:00:00 3,7 1,1 - - - 11 6 WZW 1026,3 10
16.02.2018 09:00:00 2,6 0,5 - - - 15 8 ZW 1025,3 10
16.02.2018 08:00:00 2,5 0,4 1,5 2,7 5,3 13 7 ZZW 1024,5 10
16.02.2018 07:00:00 2,1 0,5 - - - 11 6 ZZW 1024,0 10
16.02.2018 06:00:00 2,3 0,8 - - - 14 8 ZW 1023,2 12
16.02.2018 05:00:00 2,4 1,2 - - - 11 6 ZW 1022,8 12
16.02.2018 04:00:00 2,9 1,5 - - - 11 6 ZW 1022,2 10
16.02.2018 03:00:00 3,1 1,7 - - - 11 6 ZW 1021,4 15
16.02.2018 02:00:00 3,4 1,7 - - - 11 6 ZW 1020,7 15
16.02.2018 01:00:00 3,5 2,1 - - - 8 4 WZW 1019,9 10
16.02.2018 00:00:00 4,2 2,8 - - - 8 4 ZW 1019,2 10
15.02.2018 23:00:00 2,8 1,4 - - - 4 2 ZW 1018,6 10
15.02.2018 22:00:00 4,6 3,0 - - - 5 3 WZW 1017,9 10
15.02.2018 21:00:00 4,5 2,9 - - - 13 7 WNW 1017,3 10
15.02.2018 20:00:00 6,5 5,3 - - - 9 5 WZW 1016,4 10
15.02.2018 19:00:00 7,1 5,4 - - - 26 14 W 1015,4 6
15.02.2018 18:00:00 8,4 6,1 - - - 15 8 ZW 1014,0 10
15.02.2018 17:00:00 8,9 6,5 - - - 16 9 ZW 1013,4 10
15.02.2018 16:00:00 8,1 6,2 - - - 15 8 WZW 1013,0 10
15.02.2018 15:00:00 7,4 5,7 4,7 3,4 - 18 10 WZW 1012,3 10
15.02.2018 14:00:00 6,9 5,1 - - - 15 8 ZW 1011,8 8

tt = temperatuur
td = dauwpunt
tt -5cm = temperatuur -5cm
tt -20cm = temperatuur -20cm
tt -100cm = temperatuur -100cm
ff = windsnelheid
dd = windrichting
ppp = luchtdruk
vv = zicht

Weerstations in de omgeving